| time (UTC) | temp F | wind direction | speed knots | gust knots | rain 1hr in | rain 24hr in | rain mn in | humidity % | barometer mb |
| 20260902133214 | 71 | 291 | 2.6 | 2.6 | 0.00 | 0.00 | 0.00 | 99 | 1018.0 |
| 20260902132709 | 71 | 269 | 0.0 | 5.2 | 0.00 | 0.00 | 0.00 | 99 | 1017.6 |
| 20260902132204 | 71 | 23 | 0.0 | 1.7 | 0.00 | 0.00 | 0.00 | 99 | 1017.3 |
| 20260902131700 | 70 | 240 | 2.6 | 7.8 | 0.00 | 0.00 | 0.00 | 99 | 1016.8 |
| 20260902131156 | 70 | 255 | 3.5 | 3.5 | 0.00 | 0.00 | 0.00 | 99 | 1017.6 |
| 20260902130651 | 70 | 293 | 1.7 | 2.6 | 0.00 | 0.00 | 0.00 | 99 | 1017.4 |
| 20260902130147 | 70 | 269 | 0.0 | 1.7 | 0.00 | 0.00 | 0.00 | 99 | 1017.0 |
| 20260902125642 | 70 | 349 | 0.0 | 2.6 | 0.00 | 0.00 | 0.00 | 99 | 1017.2 |
| 20260902125138 | 70 | 133 | 0.0 | 1.7 | 0.00 | 0.00 | 0.00 | 99 | 1017.1 |
| 20260902124634 | 70 | 251 | 0.0 | 2.6 | 0.00 | 0.00 | 0.00 | 99 | 1017.2 |
| 20260902124134 | 70 | 50 | 0.0 | 1.7 | 0.00 | 0.00 | 0.00 | 99 | 1017.3 |
| 20260902123631 | 69 | 302 | 0.0 | 1.7 | 0.00 | 0.00 | 0.00 | 99 | 1017.4 |
| 20260902123130 | 69 | 320 | 2.6 | 2.6 | 0.00 | 0.00 | 0.00 | 99 | 1017.3 |
| 20260902122625 | 69 | 342 | 1.7 | 1.7 | 0.00 | 0.00 | 0.00 | 99 | 1017.0 |
| 20260902122121 | 69 | 15 | 0.0 | 0.9 | 0.00 | 0.00 | 0.00 | 99 | 1016.9 |
| 20260902121620 | 69 | 116 | 0.0 | 0.9 | 0.00 | 0.00 | 0.00 | 99 | 1016.8 |
| 20260902121116 | 69 | 129 | 0.0 | 0.9 | 0.00 | 0.00 | 0.00 | 99 | 1016.9 |
| 20260902120612 | 69 | 71 | 0.9 | 0.9 | 0.00 | 0.00 | 0.00 | 99 | 1016.9 |
| 20260902120109 | 69 | 73 | 0.9 | 0.9 | 0.00 | 0.00 | 0.00 | 99 | 1016.7 |
| 20260902115603 | 69 | 348 | 0.9 | 1.7 | 0.00 | 0.00 | 0.00 | 99 | 1016.9 |
| 20260902115059 | 68 | 58 | 0.9 | 0.9 | 0.00 | 0.00 | 0.00 | 99 | 1016.7 |
| 20260902114554 | 68 | 10 | 0.9 | 1.7 | 0.00 | 0.00 | 0.00 | 99 | 1016.6 |
| 20260902114054 | 68 | 124 | 0.0 | 0.0 | 0.00 | 0.00 | 0.00 | 99 | 1016.4 |
| 20260902113550 | 68 | 50 | 0.0 | 0.9 | 0.00 | 0.00 | 0.00 | 99 | 1016.7 |
| 20260902113044 | 68 | 269 | 0.0 | 1.7 | 0.00 | 0.00 | 0.00 | 99 | 1016.8 |
| 20260902112540 | 67 | 299 | 0.0 | 1.7 | 0.00 | 0.00 | 0.00 | 99 | 1016.6 |
| 20260902112037 | 67 | 38 | 0.0 | 0.0 | 0.00 | 0.00 | 0.00 | 99 | 1016.7 |
| 20260902111533 | 67 | 19 | 0.0 | 0.0 | 0.00 | 0.00 | 0.00 | 99 | 1016.6 |
| 20260902111028 | 67 | 302 | 0.0 | 0.0 | 0.00 | 0.00 | 0.00 | 99 | 1016.4 |
| 20260902110524 | 67 | 296 | 0.0 | 1.7 | 0.00 | 0.00 | 0.00 | 99 | 1016.5 |
| 20260902110019 | 67 | 261 | 0.9 | 0.9 | 0.00 | 0.00 | 0.00 | 99 | 1016.4 |
| 20260902105514 | 67 | 310 | 0.0 | 0.9 | 0.00 | 0.00 | 0.00 | 99 | 1016.6 |
| 20260902105013 | 67 | 309 | 0.9 | 1.7 | 0.00 | 0.00 | 0.00 | 99 | 1016.6 |
| 20260902104509 | 67 | 289 | 0.0 | 0.9 | 0.00 | 0.00 | 0.00 | 99 | 1016.8 |
| 20260902104004 | 67 | 50 | 0.0 | 0.0 | 0.00 | 0.00 | 0.00 | 99 | 1016.5 |
| 20260902103459 | 67 | 50 | 0.0 | 0.0 | 0.00 | 0.00 | 0.00 | 99 | 1016.9 |
| 20260902102954 | 67 | 66 | 0.0 | 0.0 | 0.00 | 0.00 | 0.00 | 99 | 1016.8 |
| 20260902102451 | 67 | 0 | 0.0 | 0.0 | 0.00 | 0.00 | 0.00 | 99 | 1016.9 |
| 20260902101947 | 67 | 275 | 0.0 | 0.9 | 0.00 | 0.00 | 0.00 | 99 | 1016.9 |
| 20260902101442 | 67 | 309 | 0.0 | 0.9 | 0.00 | 0.00 | 0.00 | 99 | 1016.9 |
| 20260902100941 | 67 | 235 | 0.0 | 0.0 | 0.00 | 0.00 | 0.00 | 99 | 1016.8 |
| 20260902100436 | 67 | 76 | 0.0 | 0.9 | 0.00 | 0.00 | 0.00 | 99 | 1016.8 |
| 20260902095936 | 67 | 60 | 0.0 | 0.9 | 0.00 | 0.00 | 0.00 | 99 | 1017.0 |
| 20260902095430 | 68 | 104 | 0.0 | 0.9 | 0.00 | 0.00 | 0.00 | 99 | 1016.9 |
| 20260902094930 | 68 | 37 | 0.0 | 0.9 | 0.00 | 0.00 | 0.00 | 99 | 1016.8 |
| 20260902094426 | 68 | 64 | 0.0 | 0.0 | 0.00 | 0.00 | 0.00 | 99 | 1017.0 |
| 20260902093920 | 68 | 54 | 0.0 | 0.9 | 0.00 | 0.00 | 0.00 | 99 | 1016.9 |
| 20260902093415 | 68 | 254 | 0.0 | 0.9 | 0.00 | 0.00 | 0.00 | 99 | 1016.7 |
| 20260902092914 | 68 | 269 | 0.0 | 0.9 | 0.00 | 0.00 | 0.00 | 99 | 1016.8 |
| 20260902092410 | 68 | 299 | 0.0 | 1.7 | 0.00 | 0.00 | 0.00 | 99 | 1016.6 |
| 20260902091904 | 68 | 113 | 0.0 | 0.9 | 0.00 | 0.00 | 0.00 | 99 | 1016.6 |
| 20260902091359 | 68 | 69 | 0.0 | 0.0 | 0.00 | 0.00 | 0.00 | 99 | 1016.9 |
| 20260902090856 | 68 | 69 | 0.0 | 0.0 | 0.00 | 0.00 | 0.00 | 99 | 1016.7 |
| 20260902090356 | 68 | 126 | 0.0 | 0.9 | 0.00 | 0.00 | 0.00 | 99 | 1016.6 |
| 20260902085854 | 68 | 113 | 0.0 | 0.0 | 0.00 | 0.00 | 0.00 | 99 | 1017.0 |
| 20260902085350 | 68 | 113 | 0.0 | 0.0 | 0.00 | 0.00 | 0.00 | 99 | 1016.9 |
| 20260902084846 | 68 | 89 | 0.9 | 0.9 | 0.00 | 0.00 | 0.00 | 99 | 1016.9 |
| 20260902084342 | 68 | 89 | 0.0 | 0.9 | 0.00 | 0.00 | 0.00 | 99 | 1017.0 |
| 20260902083837 | 68 | 50 | 0.0 | 0.0 | 0.00 | 0.00 | 0.00 | 99 | 1017.1 |
| 20260902083337 | 68 | 287 | 0.0 | 0.9 | 0.00 | 0.00 | 0.00 | 99 | 1016.9 |
| 20260902082832 | 68 | 230 | 0.0 | 0.0 | 0.00 | 0.00 | 0.00 | 99 | 1017.0 |
| 20260902082328 | 68 | 142 | 0.0 | 1.7 | 0.00 | 0.00 | 0.00 | 99 | 1016.9 |
| 20260902081824 | 68 | 142 | 0.0 | 0.0 | 0.00 | 0.00 | 0.00 | 99 | 1016.6 |
| 20260902081320 | 68 | 269 | 0.0 | 0.0 | 0.00 | 0.00 | 0.00 | 99 | 1016.6 |
| 20260902080815 | 68 | 269 | 0.0 | 0.0 | 0.00 | 0.00 | 0.00 | 99 | 1016.4 |
| 20260902080312 | 68 | 89 | 0.0 | 0.0 | 0.00 | 0.00 | 0.00 | 99 | 1016.5 |
| 20260902075811 | 68 | 89 | 0.0 | 0.0 | 0.00 | 0.00 | 0.00 | 99 | 1016.7 |
| 20260902075308 | 68 | 89 | 0.0 | 0.0 | 0.00 | 0.00 | 0.00 | 99 | 1016.7 |
| 20260902074808 | 68 | 190 | 0.0 | 1.7 | 0.00 | 0.00 | 0.00 | 99 | 1016.6 |
| 20260902074303 | 68 | 264 | 0.9 | 1.7 | 0.00 | 0.00 | 0.00 | 99 | 1016.6 |
| 20260902073758 | 68 | 217 | 0.0 | 0.9 | 0.00 | 0.00 | 0.00 | 99 | 1016.5 |
| 20260902073254 | 68 | 116 | 0.0 | 0.9 | 0.00 | 0.00 | 0.00 | 99 | 1016.6 |
| 20260902072750 | 68 | 36 | 0.0 | 0.9 | 0.00 | 0.00 | 0.00 | 99 | 1016.7 |
| 20260902072245 | 68 | 37 | 0.0 | 0.0 | 0.00 | 0.00 | 0.00 | 99 | 1016.7 |
| 20260902071742 | 68 | 50 | 0.0 | 0.9 | 0.00 | 0.00 | 0.00 | 99 | 1016.6 |
| 20260902071236 | 68 | 314 | 1.7 | 1.7 | 0.00 | 0.00 | 0.00 | 99 | 1016.6 |
| 20260902070733 | 68 | 296 | 0.0 | 1.7 | 0.00 | 0.00 | 0.00 | 99 | 1016.4 |
| 20260902070232 | 67 | 214 | 0.0 | 1.7 | 0.00 | 0.00 | 0.00 | 99 | 1016.6 |
| 20260902065731 | 68 | 134 | 0.0 | 0.9 | 0.00 | 0.00 | 0.00 | 99 | 1016.8 |
| 20260902065227 | 68 | 148 | 0.0 | 0.9 | 0.00 | 0.00 | 0.00 | 99 | 1016.7 |
| 20260902064722 | 68 | 137 | 1.7 | 1.7 | 0.00 | 0.00 | 0.00 | 99 | 1016.8 |
| 20260902064218 | 68 | 173 | 0.0 | 0.0 | 0.00 | 0.00 | 0.00 | 99 | 1017.0 |
| 20260902063714 | 68 | 129 | 0.0 | 0.0 | 0.00 | 0.00 | 0.00 | 99 | 1016.9 |
| 20260902063208 | 68 | 197 | 0.0 | 0.0 | 0.00 | 0.00 | 0.00 | 99 | 1016.7 |
| 20260902062707 | 68 | 229 | 0.0 | 0.9 | 0.00 | 0.00 | 0.00 | 99 | 1016.7 |
| 20260902062202 | 69 | 44 | 0.0 | 0.0 | 0.00 | 0.00 | 0.00 | 99 | 1016.7 |
| 20260902061701 | 69 | 113 | 0.0 | 0.0 | 0.00 | 0.00 | 0.00 | 99 | 1016.6 |
| 20260902061157 | 69 | 322 | 0.0 | 0.9 | 0.00 | 0.00 | 0.00 | 99 | 1016.9 |
| 20260902060653 | 69 | 246 | 0.0 | 1.7 | 0.00 | 0.00 | 0.00 | 99 | 1016.8 |
| 20260902060149 | 69 | 322 | 0.0 | 0.0 | 0.00 | 0.00 | 0.00 | 99 | 1016.7 |
| 20260902055645 | 69 | 15 | 0.0 | 0.0 | 0.00 | 0.00 | 0.00 | 99 | 1016.8 |
| 20260902055140 | 69 | 15 | 0.0 | 0.0 | 0.00 | 0.00 | 0.00 | 99 | 1016.9 |
| 20260902054635 | 69 | 156 | 0.0 | 0.0 | 0.00 | 0.00 | 0.00 | 99 | 1016.9 |
| 20260902054131 | 69 | 322 | 0.0 | 0.0 | 0.00 | 0.00 | 0.00 | 99 | 1016.7 |
| 20260902053626 | 69 | 15 | 0.0 | 0.9 | 0.00 | 0.00 | 0.00 | 99 | 1016.8 |
| 20260902053121 | 69 | 193 | 0.0 | 1.7 | 0.00 | 0.00 | 0.00 | 99 | 1016.8 |
| 20260902052621 | 70 | 352 | 0.0 | 0.0 | 0.00 | 0.00 | 0.00 | 99 | 1016.6 |
| 20260902052117 | 70 | 352 | 0.0 | 0.0 | 0.00 | 0.00 | 0.00 | 99 | 1016.7 |
| 20260902051616 | 70 | 50 | 0.0 | 0.0 | 0.00 | 0.00 | 0.00 | 99 | 1016.6 |
| 20260902051115 | 70 | 0 | 0.0 | 1.7 | 0.00 | 0.00 | 0.00 | 99 | 1016.8 |
| 20260902050609 | 70 | 265 | 0.9 | 0.9 | 0.00 | 0.00 | 0.00 | 99 | 1016.6 |
| 20260902050105 | 70 | 50 | 0.0 | 0.0 | 0.00 | 0.00 | 0.00 | 99 | 1016.7 |
| 20260902045600 | 70 | 50 | 0.0 | 0.0 | 0.00 | 0.00 | 0.00 | 99 | 1016.7 |
| 20260902045056 | 70 | 142 | 0.0 | 0.0 | 0.00 | 0.00 | 0.00 | 99 | 1016.5 |
| 20260902044551 | 70 | 50 | 0.0 | 0.0 | 0.00 | 0.00 | 0.00 | 99 | 1016.7 |
| 20260902044046 | 70 | 66 | 0.0 | 0.9 | 0.00 | 0.00 | 0.00 | 99 | 1016.3 |
| 20260902043542 | 70 | 24 | 0.0 | 0.9 | 0.00 | 0.00 | 0.00 | 99 | 1016.5 |
| 20260902043036 | 70 | 309 | 0.0 | 1.7 | 0.00 | 0.00 | 0.00 | 99 | 1016.3 |
| 20260902042536 | 69 | 259 | 1.7 | 1.7 | 0.00 | 0.00 | 0.00 | 99 | 1016.5 |
| 20260902042031 | 69 | 310 | 0.0 | 0.9 | 0.00 | 0.00 | 0.00 | 99 | 1016.2 |
| 20260902041525 | 69 | 316 | 0.0 | 0.9 | 0.00 | 0.00 | 0.00 | 99 | 1016.1 |
| 20260902041020 | 69 | 37 | 0.0 | 0.0 | 0.00 | 0.00 | 0.00 | 99 | 1016.3 |
| 20260902040521 | 69 | 15 | 0.0 | 0.9 | 0.00 | 0.00 | 0.00 | 99 | 1016.2 |
| 20260902040020 | 69 | 308 | 0.9 | 1.7 | 0.00 | 0.00 | 0.00 | 99 | 1016.2 |
| 20260902035514 | 70 | 72 | 0.0 | 0.0 | 0.00 | 1.02 | 1.02 | 99 | 1016.2 |
| 20260902035015 | 70 | 217 | 0.0 | 0.0 | 0.00 | 1.02 | 1.02 | 99 | 1016.1 |
| 20260902034509 | 70 | 147 | 0.0 | 0.9 | 0.00 | 1.02 | 1.02 | 99 | 1016.2 |
| 20260902034008 | 70 | 265 | 0.9 | 1.7 | 0.00 | 1.02 | 1.02 | 99 | 1016.2 |
| 20260902033507 | 70 | 307 | 0.0 | 0.9 | 0.00 | 1.02 | 1.02 | 99 | 1015.9 |
| 20260902033008 | 70 | 117 | 0.0 | 0.0 | 0.00 | 1.02 | 1.02 | 99 | 1015.8 |
| 20260902032501 | 70 | 246 | 0.0 | 1.7 | 0.00 | 1.02 | 1.02 | 99 | 1016.0 |
| 20260902031956 | 70 | 294 | 1.7 | 1.7 | 0.00 | 1.02 | 1.02 | 99 | 1016.1 |
| 20260902031446 | 70 | 89 | 0.0 | 0.0 | 0.00 | 1.02 | 1.02 | 99 | 1016.0 |
| 20260902030943 | 70 | 31 | 0.0 | 0.9 | 0.00 | 1.02 | 1.02 | 99 | 1015.9 |
| 20260902030442 | 70 | 314 | 1.7 | 1.7 | 0.00 | 1.02 | 1.02 | 99 | 1015.7 |
| 20260902025940 | 70 | 6 | 1.7 | 1.7 | 0.00 | 1.02 | 1.02 | 99 | 1015.8 |
| 20260902025436 | 70 | 19 | 0.0 | 0.9 | 0.00 | 1.02 | 1.02 | 99 | 1015.8 |
| 20260902024931 | 70 | 22 | 0.9 | 1.7 | 0.00 | 1.02 | 1.02 | 99 | 1015.8 |
| 20260902024427 | 70 | 53 | 0.0 | 1.7 | 0.00 | 1.02 | 1.02 | 99 | 1015.7 |
| 20260902023922 | 70 | 324 | 0.0 | 0.9 | 0.00 | 1.02 | 1.02 | 99 | 1015.5 |
| 20260902023418 | 70 | 336 | 0.0 | 0.0 | 0.00 | 1.02 | 1.02 | 99 | 1015.8 |
| 20260902022917 | 70 | 341 | 0.0 | 0.9 | 0.00 | 1.02 | 1.02 | 99 | 1015.7 |
| 20260902022412 | 70 | 318 | 0.9 | 0.9 | 0.00 | 1.02 | 1.02 | 99 | 1015.7 |
| 20260902021908 | 70 | 89 | 0.9 | 1.7 | 0.00 | 1.02 | 1.02 | 99 | 1015.9 |
| 20260902021407 | 70 | 315 | 0.0 | 0.9 | 0.00 | 1.02 | 1.02 | 99 | 1015.8 |
| 20260902020903 | 70 | 259 | 0.9 | 0.9 | 0.00 | 1.02 | 1.02 | 99 | 1015.9 |
| 20260902020359 | 70 | 44 | 0.0 | 0.0 | 0.00 | 1.02 | 1.02 | 99 | 1015.7 |
| 20260902015855 | 70 | 44 | 0.0 | 0.0 | 0.00 | 1.02 | 1.02 | 99 | 1015.7 |
| 20260902015349 | 70 | 44 | 0.0 | 0.9 | 0.00 | 1.02 | 1.02 | 99 | 1015.4 |
| 20260902014846 | 70 | 92 | 1.7 | 1.7 | 0.00 | 1.02 | 1.02 | 99 | 1015.8 |
| 20260902014342 | 71 | 19 | 0.9 | 1.7 | 0.00 | 1.02 | 1.02 | 99 | 1015.6 |
| 20260902013841 | 71 | 15 | 0.9 | 1.7 | 0.00 | 1.02 | 1.02 | 99 | 1015.6 |
| 20260902013336 | 71 | 39 | 0.0 | 0.9 | 0.00 | 1.02 | 1.02 | 99 | 1015.4 |
| 20260902012832 | 71 | 230 | 0.0 | 0.0 | 0.00 | 1.02 | 1.02 | 99 | 1015.4 |
| 20260902012328 | 71 | 269 | 0.0 | 1.7 | 0.00 | 1.02 | 1.02 | 99 | 1015.7 |
| 20260902011823 | 71 | 297 | 0.0 | 0.0 | 0.00 | 1.02 | 1.02 | 99 | 1015.5 |
| 20260902011318 | 71 | 50 | 0.0 | 0.0 | 0.00 | 1.02 | 1.02 | 99 | 1015.3 |
| 20260902010817 | 71 | 60 | 0.0 | 0.0 | 0.00 | 1.02 | 1.02 | 99 | 1015.4 |
| 20260902010312 | 71 | 50 | 0.0 | 0.0 | 0.00 | 1.02 | 1.02 | 99 | 1015.3 |
| 20260902005811 | 71 | 50 | 0.0 | 0.0 | 0.00 | 1.02 | 1.02 | 99 | 1015.2 |
| 20260902005306 | 71 | 62 | 0.0 | 0.9 | 0.00 | 1.02 | 1.02 | 99 | 1015.1 |
| 20260902004801 | 72 | 256 | 0.0 | 0.9 | 0.00 | 1.02 | 1.02 | 99 | 1015.0 |
| 20260902004256 | 71 | 293 | 0.9 | 1.7 | 0.00 | 1.02 | 1.02 | 99 | 1014.7 |
| 20260902003750 | 72 | 37 | 0.0 | 0.9 | 0.00 | 1.02 | 1.02 | 99 | 1014.9 |
| 20260902003246 | 72 | 62 | 0.0 | 0.9 | 0.00 | 1.02 | 1.02 | 99 | 1014.6 |
| 20260902002742 | 72 | 304 | 0.0 | 0.0 | 0.00 | 1.02 | 1.02 | 99 | 1014.6 |
| 20260902002241 | 72 | 242 | 0.0 | 0.0 | 0.00 | 1.02 | 1.02 | 99 | 1014.4 |
| 20260902001737 | 72 | 17 | 0.0 | 0.0 | 0.00 | 1.02 | 1.02 | 99 | 1014.4 |
| 20260902001237 | 72 | 32 | 0.0 | 0.9 | 0.00 | 1.02 | 1.02 | 99 | 1014.3 |
| 20260902000731 | 73 | 50 | 0.0 | 0.0 | 0.00 | 1.02 | 1.02 | 99 | 1014.4 |
| 20260902000226 | 73 | 37 | 0.0 | 0.9 | 0.00 | 1.02 | 1.02 | 99 | 1014.3 |
| 20260901235721 | 73 | 12 | 0.9 | 0.9 | 0.00 | 1.02 | 1.02 | 99 | 1014.3 |
| 20260901235217 | 73 | 19 | 0.0 | 0.9 | 0.00 | 1.02 | 1.02 | 99 | 1014.2 |
| 20260901234715 | 73 | 309 | 0.0 | 0.0 | 0.00 | 1.02 | 1.02 | 99 | 1014.3 |
| 20260901234210 | 73 | 297 | 0.0 | 0.0 | 0.00 | 1.02 | 1.02 | 99 | 1014.4 |
| 20260901233710 | 73 | 343 | 0.0 | 0.0 | 0.00 | 1.02 | 1.02 | 99 | 1014.3 |
| 20260901233206 | 73 | 322 | 0.0 | 0.0 | 0.00 | 1.02 | 1.02 | 99 | 1014.4 |
| 20260901232701 | 73 | 304 | 0.0 | 0.0 | 0.00 | 1.02 | 1.02 | 99 | 1014.5 |
| 20260901232156 | 73 | 286 | 0.0 | 0.9 | 0.00 | 1.02 | 1.02 | 99 | 1014.4 |
| 20260901231653 | 73 | 303 | 1.7 | 1.7 | 0.00 | 1.02 | 1.02 | 99 | 1014.1 |
| 20260901231149 | 73 | 317 | 0.0 | 0.9 | 0.00 | 1.02 | 1.02 | 99 | 1014.2 |
| 20260901230644 | 74 | 318 | 0.9 | 0.9 | 0.00 | 1.02 | 1.02 | 99 | 1013.8 |
| 20260901230144 | 74 | 355 | 0.0 | 1.7 | 0.00 | 1.02 | 1.02 | 99 | 1014.1 |
| 20260901225639 | 74 | 308 | 0.0 | 1.7 | 0.00 | 1.02 | 1.02 | 99 | 1014.1 |
| 20260901225134 | 74 | 299 | 1.7 | 1.7 | 0.00 | 1.02 | 1.02 | 99 | 1014.0 |
| 20260901224630 | 75 | 297 | 1.7 | 2.6 | 0.00 | 1.02 | 1.02 | 99 | 1014.1 |
| 20260901224126 | 75 | 294 | 1.7 | 2.6 | 0.00 | 1.02 | 1.02 | 99 | 1014.1 |
| 20260901223620 | 75 | 275 | 0.9 | 1.7 | 0.00 | 1.02 | 1.02 | 98 | 1013.9 |
| 20260901223116 | 75 | 291 | 1.7 | 1.7 | 0.00 | 1.02 | 1.02 | 98 | 1013.6 |
| 20260901222612 | 76 | 290 | 0.9 | 1.7 | 0.00 | 1.02 | 1.02 | 98 | 1013.6 |
| 20260901222107 | 76 | 282 | 0.9 | 1.7 | 0.00 | 1.02 | 1.02 | 96 | 1013.9 |
| 20260901221603 | 77 | 323 | 1.7 | 2.6 | 0.00 | 1.02 | 1.02 | 95 | 1013.9 |
| 20260901221059 | 78 | 255 | 0.0 | 1.7 | 0.00 | 1.02 | 1.02 | 93 | 1013.8 |
| 20260901220559 | 78 | 309 | 0.0 | 2.6 | 0.00 | 1.02 | 1.02 | 93 | 1014.0 |
| 20260901220058 | 79 | 289 | 1.7 | 3.5 | 0.00 | 1.02 | 1.02 | 91 | 1014.0 |
| 20260901215556 | 81 | 287 | 0.9 | 1.7 | 0.00 | 1.02 | 1.02 | 89 | 1013.9 |
| 20260901215056 | 80 | 325 | 0.0 | 1.7 | 0.00 | 1.02 | 1.02 | 90 | 1013.9 |
| 20260901214555 | 79 | 293 | 0.9 | 1.7 | 0.00 | 1.02 | 1.02 | 92 | 1014.1 |
| 20260901214049 | 79 | 305 | 0.9 | 1.7 | 0.00 | 1.02 | 1.02 | 93 | 1013.8 |
| 20260901213549 | 79 | 324 | 0.9 | 3.5 | 0.00 | 1.02 | 1.02 | 91 | 1013.9 |
| 20260901213043 | 81 | 293 | 0.0 | 1.7 | 0.00 | 1.02 | 1.02 | 87 | 1013.8 |
| 20260901212538 | 81 | 306 | 1.7 | 1.7 | 0.00 | 1.02 | 1.02 | 90 | 1013.8 |
| 20260901212034 | 82 | 2 | 0.0 | 1.7 | 0.00 | 1.02 | 1.02 | 87 | 1013.5 |
| 20260901211529 | 81 | 359 | 1.7 | 1.7 | 0.00 | 1.02 | 1.02 | 88 | 1013.4 |
| 20260901211026 | 79 | 9 | 0.9 | 2.6 | 0.00 | 1.02 | 1.02 | 91 | 1013.8 |
| 20260901210520 | 80 | 329 | 0.0 | 1.7 | 0.00 | 1.02 | 1.02 | 92 | 1013.7 |
| 20260901210017 | 81 | 354 | 0.9 | 0.9 | 0.00 | 1.02 | 1.02 | 89 | 1013.6 |
| 20260901205511 | 81 | 334 | 0.9 | 1.7 | 0.00 | 1.02 | 1.02 | 90 | 1013.4 |
| 20260901205006 | 80 | 60 | 0.9 | 1.7 | 0.00 | 1.02 | 1.02 | 91 | 1013.6 |
| 20260901204503 | 79 | 22 | 0.0 | 0.9 | 0.00 | 1.02 | 1.02 | 93 | 1013.6 |
| 20260901203957 | 79 | 19 | 0.0 | 0.9 | 0.00 | 1.02 | 1.02 | 94 | 1013.6 |
| 20260901203452 | 79 | 333 | 0.9 | 1.7 | 0.00 | 1.02 | 1.02 | 96 | 1014.0 |
| 20260901202947 | 79 | 285 | 0.9 | 1.7 | 0.00 | 1.02 | 1.02 | 95 | 1013.7 |
| 20260901202447 | 80 | 304 | 0.9 | 0.9 | 0.00 | 1.02 | 1.02 | 95 | 1013.8 |
| 20260901201937 | 79 | 309 | 0.0 | 0.0 | 0.00 | 1.02 | 1.02 | 96 | 1013.8 |
| 20260901201432 | 79 | 333 | 0.0 | 0.9 | 0.00 | 1.02 | 1.02 | 96 | 1013.8 |
| 20260901200931 | 79 | 1 | 0.9 | 1.7 | 0.00 | 1.02 | 1.02 | 95 | 1013.7 |
| 20260901200427 | 78 | 352 | 0.0 | 0.9 | 0.00 | 1.02 | 1.02 | 94 | 1014.0 |
| 20260901195926 | 78 | 357 | 0.9 | 1.7 | 0.00 | 1.02 | 1.02 | 96 | 1013.9 |
| 20260901195424 | 79 | 352 | 0.0 | 0.9 | 0.00 | 1.02 | 1.02 | 95 | 1013.9 |
| 20260901194919 | 79 | 37 | 0.0 | 1.7 | 0.00 | 1.02 | 1.02 | 94 | 1013.8 |
| 20260901194414 | 79 | 67 | 0.9 | 1.7 | 0.00 | 1.02 | 1.02 | 92 | 1013.7 |
| 20260901193910 | 79 | 25 | 0.0 | 0.9 | 0.00 | 1.02 | 1.02 | 91 | 1014.0 |
| 20260901193409 | 79 | 55 | 0.0 | 1.7 | 0.00 | 1.02 | 1.02 | 91 | 1013.9 |
| 20260901192904 | 79 | 19 | 0.0 | 1.7 | 0.00 | 1.02 | 1.02 | 90 | 1014.0 |
| 20260901192400 | 79 | 345 | 0.0 | 1.7 | 0.00 | 1.02 | 1.02 | 89 | 1013.9 |
| 20260901191856 | 79 | 322 | 1.7 | 2.6 | 0.00 | 1.02 | 1.02 | 94 | 1014.1 |
| 20260901191351 | 80 | 154 | 2.6 | 2.6 | 0.00 | 1.02 | 1.02 | 88 | 1013.7 |
| 20260901190847 | 80 | 351 | 0.9 | 1.7 | 0.00 | 1.02 | 1.02 | 87 | 1013.7 |
| 20260901190346 | 81 | 314 | 1.7 | 2.6 | 0.00 | 1.02 | 1.02 | 88 | 1013.9 |
| 20260901185845 | 81 | 61 | 0.0 | 1.7 | 0.00 | 1.02 | 1.02 | 88 | 1013.9 |
| 20260901185344 | 81 | 304 | 2.6 | 2.6 | 0.00 | 1.02 | 1.02 | 89 | 1014.0 |
| 20260901184839 | 81 | 357 | 1.7 | 1.7 | 0.00 | 1.02 | 1.02 | 87 | 1013.9 |
| 20260901184335 | 79 | 232 | 0.0 | 3.5 | 0.00 | 1.02 | 1.02 | 89 | 1013.9 |
| 20260901183830 | 78 | 352 | 1.7 | 1.7 | 0.00 | 1.02 | 1.02 | 93 | 1013.9 |
| 20260901183329 | 78 | 50 | 0.0 | 0.9 | 0.00 | 1.02 | 1.02 | 94 | 1013.9 |
| 20260901182827 | 77 | 7 | 0.9 | 5.2 | 0.00 | 1.02 | 1.02 | 93 | 1014.0 |
| 20260901182326 | 77 | 301 | 1.7 | 2.6 | 0.00 | 1.02 | 1.02 | 93 | 1013.7 |
| 20260901181821 | 77 | 333 | 0.0 | 0.0 | 0.00 | 1.02 | 1.02 | 94 | 1013.5 |
| 20260901181321 | 78 | 261 | 1.7 | 3.5 | 0.00 | 1.02 | 1.02 | 91 | 1013.5 |
| 20260901180814 | 78 | 331 | 0.9 | 1.7 | 0.00 | 1.02 | 1.02 | 94 | 1013.7 |
| 20260901180314 | 78 | 338 | 0.9 | 1.7 | 0.00 | 1.02 | 1.02 | 93 | 1013.6 |
| 20260901175812 | 77 | 258 | 0.9 | 3.5 | 0.00 | 1.02 | 1.02 | 91 | 1013.8 |
| 20260901175308 | 77 | 309 | 0.0 | 0.9 | 0.00 | 1.02 | 1.02 | 98 | 1013.7 |
| 20260901174802 | 76 | 300 | 0.9 | 1.7 | 0.00 | 1.02 | 1.02 | 98 | 1013.6 |
| 20260901174258 | 76 | 266 | 1.7 | 3.5 | 0.00 | 1.02 | 1.02 | 98 | 1013.5 |
| 20260901173754 | 76 | 352 | 0.0 | 0.9 | 0.00 | 1.02 | 1.02 | 99 | 1013.6 |
| 20260901173248 | 75 | 329 | 0.0 | 1.7 | 0.00 | 1.02 | 1.02 | 99 | 1013.5 |
| 20260901172745 | 73 | 163 | 1.7 | 1.7 | 0.00 | 1.02 | 1.02 | 99 | 1013.8 |
| 20260901172243 | 73 | 276 | 1.7 | 2.6 | 0.00 | 1.02 | 1.02 | 99 | 1013.6 |
| 20260901171742 | 72 | 242 | 0.0 | 0.9 | 0.00 | 1.02 | 1.02 | 99 | 1013.7 |
| 20260901171241 | 72 | 304 | 0.0 | 0.0 | 0.00 | 1.02 | 1.02 | 99 | 1013.6 |
| 20260901170740 | 71 | 137 | 0.0 | 0.9 | 0.00 | 1.02 | 1.02 | 99 | 1013.7 |
| 20260901170235 | 72 | 62 | 0.0 | 0.0 | 0.00 | 1.02 | 1.02 | 99 | 1013.9 |
| 20260901165734 | 71 | 283 | 0.0 | 0.0 | 0.00 | 1.02 | 1.02 | 99 | 1013.7 |
| 20260901165234 | 71 | 132 | 0.9 | 1.7 | 0.00 | 1.02 | 1.02 | 99 | 1013.7 |
| 20260901164731 | 71 | 144 | 0.9 | 0.9 | 0.00 | 1.02 | 1.02 | 99 | 1014.0 |
| 20260901164226 | 71 | 229 | 0.9 | 1.7 | 0.00 | 1.02 | 1.02 | 99 | 1013.8 |
| 20260901163721 | 71 | 220 | 0.0 | 1.7 | 0.00 | 1.02 | 1.02 | 99 | 1013.7 |
| 20260901163220 | 71 | 295 | 0.9 | 1.7 | 0.00 | 1.02 | 1.02 | 99 | 1014.0 |
| 20260901162716 | 70 | 251 | 1.7 | 2.6 | 0.00 | 1.02 | 1.02 | 99 | 1014.1 |
| 20260901162215 | 71 | 195 | 0.9 | 1.7 | 0.00 | 1.02 | 1.02 | 99 | 1014.1 |
| 20260901161714 | 70 | 267 | 1.7 | 1.7 | 0.00 | 1.02 | 1.02 | 99 | 1013.9 |
| 20260901161209 | 70 | 309 | 0.0 | 0.9 | 0.00 | 1.02 | 1.02 | 99 | 1014.1 |
| 20260901160705 | 70 | 199 | 0.0 | 0.0 | 0.00 | 1.02 | 1.02 | 99 | 1014.0 |
| 20260901160200 | 70 | 237 | 1.7 | 1.7 | 0.00 | 1.02 | 1.02 | 99 | 1014.1 |
| 20260901155659 | 70 | 233 | 0.0 | 1.7 | 0.00 | 1.02 | 1.02 | 99 | 1014.1 |
| 20260901155154 | 70 | 217 | 0.0 | 0.0 | 0.00 | 1.02 | 1.02 | 99 | 1014.1 |
| 20260901154650 | 70 | 297 | 0.0 | 0.0 | 0.00 | 1.02 | 1.02 | 99 | 1014.3 |
| 20260901154145 | 70 | 304 | 0.0 | 0.0 | 0.00 | 1.02 | 1.02 | 99 | 1014.0 |
| 20260901153640 | 70 | 212 | 0.0 | 0.9 | 0.00 | 1.02 | 1.02 | 99 | 1014.2 |
| 20260901153139 | 70 | 269 | 0.0 | 0.9 | 0.00 | 1.02 | 1.02 | 99 | 1014.2 |
| 20260901152634 | 70 | 22 | 0.0 | 0.9 | 0.00 | 1.02 | 1.02 | 99 | 1014.3 |
| 20260901152132 | 69 | 286 | 0.9 | 1.7 | 0.00 | 1.02 | 1.02 | 99 | 1014.2 |
| 20260901151629 | 69 | 275 | 1.7 | 1.7 | 0.00 | 1.02 | 1.02 | 99 | 1014.3 |
| 20260901151128 | 69 | 269 | 0.0 | 1.7 | 0.00 | 1.02 | 1.02 | 99 | 1014.2 |
| 20260901150627 | 69 | 229 | 0.0 | 1.7 | 0.00 | 1.02 | 1.02 | 99 | 1014.1 |
| 20260901150120 | 69 | 113 | 0.0 | 0.0 | 0.00 | 1.02 | 1.02 | 99 | 1014.2 |
| 20260901145619 | 69 | 76 | 0.0 | 0.9 | 0.00 | 1.02 | 1.02 | 99 | 1014.2 |
| 20260901145118 | 69 | 230 | 0.0 | 1.7 | 0.00 | 1.02 | 1.02 | 99 | 1014.1 |
| 20260901144614 | 69 | 281 | 0.0 | 1.7 | 0.00 | 1.02 | 1.02 | 99 | 1014.2 |
| 20260901144109 | 69 | 215 | 1.7 | 1.7 | 0.05 | 1.02 | 1.02 | 99 | 1014.0 |
| 20260901143604 | 69 | 193 | 0.0 | 0.9 | 0.07 | 1.02 | 1.02 | 99 | 1014.3 |
| 20260901143101 | 69 | 265 | 0.9 | 1.7 | 0.02 | 1.01 | 1.01 | 99 | 1014.1 |
| 20260901142556 | 69 | 236 | 0.0 | 0.9 | 0.00 | 1.01 | 1.01 | 99 | 1014.0 |
| 20260901142055 | 69 | 237 | 0.9 | 1.7 | 0.00 | 1.01 | 1.01 | 99 | 1014.1 |
| 20260901141550 | 69 | 232 | 0.0 | 1.7 | 0.00 | 1.01 | 1.01 | 99 | 1014.1 |
| 20260901141045 | 68 | 352 | 0.0 | 1.7 | 0.02 | 1.01 | 1.01 | 99 | 1014.0 |
| 20260901140543 | 68 | 256 | 0.0 | 0.9 | 0.07 | 1.01 | 1.01 | 99 | 1014.2 |
| 20260901140038 | 68 | 249 | 0.0 | 1.7 | 0.76 | 1.00 | 1.00 | 99 | 1014.2 |
| 20260901135537 | 68 | 235 | 1.7 | 3.5 | 0.92 | 0.98 | 0.98 | 99 | 1014.4 |
| 20260901135033 | 68 | 274 | 0.9 | 3.5 | 0.35 | 0.87 | 0.87 | 99 | 1014.4 |
| 20260901134529 | 68 | 269 | 1.7 | 3.5 | 0.14 | 0.82 | 0.82 | 99 | 1014.2 |
| 20260901134028 | 68 | 263 | 1.7 | 2.6 | 0.05 | 0.81 | 0.81 | 99 | 1014.1 |
| 20260901133527 | 68 | 250 | 2.6 | 3.5 | 0.02 | 0.80 | 0.80 | 99 | 1014.1 |